User: anonymous   Login
Location: Moscow
(55.7500°N, 37.5830°E)
Time: 07:47:36
(UTC+03:00)
Language:

AO-109 - Orbit

View from above orbital plane
View from above orbital plane
View from above satellite
View from above satellite

Ground track
Ground track

The orbit data is extracted from the following two-line orbital elements,

1 47311U 21002C   22027.54591544  .00004527  00000-0  20136-3 0  9994
2 47311  60.6845 171.6474 0025910 164.8502 195.3367 15.22923045 56985
Epoch (UTC): 27 January 2022 13:06:07
Eccentricity: 0.0025910
inclination: 60.6845°
perigee height: 479 km
apogee height: 515 km
right ascension of ascending node: 171.6474°
argument of perigee: 164.8502°
revolutions per day: 15.22923045
mean anomaly at epoch: 195.3367°
orbit number at epoch: 5698

The dashed part of the orbit path shows where the satellite is in the earth's shadow,  

DLR